Location: Laura�t
(43.9341°N, 0.2497°E)
Time: 23:41:20
(UTC+00:00)

Cosmos 1844 Rocket - Pass Details

Date: 03 March 2021
Orbit: 826 x 843 km, 71.0° (Epoch: 17 April)

Event Time Altitude Azimuth Distance (km) Brightness Sun altitude
Rises 18:22:00 0° 341° (NNW) 3,374 6.1 -6.5°
Reaches altitude 10° 18:24:42 10° 351° (N) 2,437 5.2 -7.0°
Maximum altitude 18:29:42 33° 55° (NE) 1,363 3.4 -7.9°
Drops below altitude 10° 18:34:41 10° 118° (ESE) 2,426 4.6 -8.8°
Enters shadow 18:35:53 - 124° (ESE) 2,833 4.9 -9.0°
